Regional Weather Roundup
Issued by NWS

Home | Current Version | Previous Version | Text Only | Print | Product List | Glossary On
Versions: 1 2 3 4 5 6 7 8 9 10 11 12 13 14 15 16 17 18 19 20 21 22 23 24 25 26 27
000
ASUS45 KBOU 201907
RWRCO

WEATHER ROUNDUP FOR COLORADO
NATIONAL WEATHER SERVICE DENVER/BOULDER CO
100 PM MDT WED SEP 20 2017

NOTE: "FAIR" INDICATES FEW OR NO CLOUDS BELOW 12000 FEET WITH NO
SIGNIFICANT WEATHER AND/OR OBSTRUCTIONS TO VISIBILITY.

COZ001>005-013-030-031-202000-
...NORTHWEST COLORADO...

CITY           SKY/WX    TMP DP  RH WIND       PRES   REMARKS
CRAIG          FAIR      64  34  32 VRB3      29.96F
HAYDEN         FAIR      60  38  43 VRB6      29.99F
MEEKER         FAIR      70  34  26 S17G29    29.95F
RABBIT EARS PA FAIR      46  36  66 SW9G17    30.17S
STEAMBOAT SPGS FAIR      59  37  43 NW3       29.99F
WALDEN         FAIR      59  32  36 SW23G30   30.04F
$$

COZ006>008-011-202000-
...WEST CENTRAL VALLEYS...

CITY           SKY/WX    TMP DP  RH WIND       PRES   REMARKS
GRAND JUNCTION FAIR      75  35  23 NW9       29.89F
MONTROSE       FAIR      76  32  20 SW15G23   29.98F
EAGLE          CLOUDY    72  31  22 SW24G31   29.96F
RIFLE          FAIR      73  34  23 NW13      29.92F
DELTA          FAIR      79  32  18 SE7       29.94F
NUCLA          FAIR      75  30  19 S20G30    30.04F
$$

COZ017>023-064>068-202000-
...SOUTHWEST COLORADO...

CITY           SKY/WX    TMP DP  RH WIND       PRES   REMARKS
DURANGO        FAIR      70  30  22 SW10G20   30.11F
CORTEZ         FAIR      75  30  19 S13G22    30.05F
PAGOSA SPRINGS FAIR      66  24  20 S5        30.19S
TELLURIDE      FAIR      65  25  22 SE15G24   30.19S
WOLF CREEK PAS FAIR      43  27  52 S23G38    30.41S
$$

COZ009-010-012-014-032>034-037-058>063-202000-
...CENTRAL COLORADO...

CITY           SKY/WX    TMP DP  RH WIND       PRES   REMARKS
ASPEN          FAIR      70  24  17 W9G20     30.03F
BUENA VISTA    FAIR      72  18  13 SW15G24   30.04F
COPPER MTN     FAIR      54  19  26 SW7G29    30.28S
BERTHOUD PASS  FAIR      45  36  70 W25G36    30.28R
COTTONWOOD PAS FAIR      64  18  16 SW17G32   30.16F
GUNNISON       FAIR      70  28  21 W14       30.06F
KREMMLING      FAIR      77  27  15 SW14G25   30.01F
LEADVILLE      FAIR      60  18  19 S17G30    30.14F
MONARCH PASS   FAIR      50  23  34 W30G38    30.41F
SALIDA         FAIR      73  24  16 S14       30.09F
SUNLIGHT       FAIR      55  28  35 SW12G24   30.24S
WILKERSON PASS FAIR      55  21  26 SW16G26   30.25F
$$

COZ069>075-202000-
...SAN LUIS VALLEY/SANGRE DE CRISTO MOUNTAINS...

CITY           SKY/WX    TMP DP  RH WIND       PRES   REMARKS
ALAMOSA        FAIR      72  27  18 S23       30.08F
DEL NORTE      FAIR      71  25  18 SW17G26   30.11F
LA VETA PASS   FAIR      63  27  25 MISG      30.36F
SAGUACHE       FAIR      66  30  26 SE10      30.10F
$$

COZ035-036-038>040-202000-
...NORTHERN COLORADO FRONT RANGE...

CITY           SKY/WX    TMP DP  RH WIND       PRES   REMARKS
DENVER INTL AP FAIR      76  29  17 S16       29.89F
DMNS CITY PARK   N/A     68  32  25 N7G14     29.90F
AURORA         MOSUNNY   73  30  20 S14       29.91F
FRONT RANGE AP MOSUNNY   73  28  19 SE17G31   29.92F
ERIE MUNI ARPT FAIR      68  32  26 W5        29.95F
BOULDER MUN AP FAIR      64  32  29 NE3       29.91F
CENTENNIAL     FAIR      72  29  20 S14G21    29.91F
BROOMFIELD     MOSUNNY   64  32  29 NE3       29.93F
FORT COLLINS   FAIR      71  35  26 SE13G22   29.91F
LONGMONT       FAIR      71  35  26 N6        29.92F
$$

COZ041-046-047-076>085-087-088-202000-
...PIKES PEAK/PALMER DIVIDE AND SOUTHERN FOOTHILLS...

CITY           SKY/WX    TMP DP  RH WIND       PRES   REMARKS
COLO. SPRINGS  FAIR      64  29  26 S25G31    30.03F
A. F. ACADEMY  FAIR      62  27  26 SE23G31   30.01F
SCHRIEVER AFB  FAIR      61  26  25 S18G28    30.05F
CHEYENNE MTN   NOT AVBL
ELLICOTT         N/A    N/A N/A N/A S17G26    30.04F
FALCON         FAIR      61  24  24 S23       30.07F
FORT CARSON    FAIR      65  27  24 S18G26    30.02F
LIMON          FAIR      66  24  20 S16G33    30.00F
MONUMENT HILL  FAIR      61  28  29 S30G36    30.01F
CANON CITY     SUNNY     68  32  26 NE3       30.02F
WALSENBURG     NOT AVBL
TRINIDAD       FAIR      73  33  23 SE8       30.01F
$$

COZ042>045-048>051-090-091-202000-
...NORTHEAST COLORADO...

CITY           SKY/WX    TMP DP  RH WIND       PRES   REMARKS
GREELEY ARPT   FAIR      72  34  24 SE20G26   29.90F
AKRON          FAIR      69  27  20 S18       29.96F
BURLINGTON     FAIR      71  28  20 VRB3      29.99F
WRAY           FAIR      72  23  16 E5        29.96F
YUMA           FAIR      68  30  24 S5        29.96F
STERLING       FAIR      72  32  23 S14       29.92F
HOLYOKE        NOT AVBL
FORT MORGAN    FAIR      71  25  17 S17G25    29.94F
$$

COZ086-089-092>099-202000-
...SOUTHEAST COLORADO...

CITY           SKY/WX    TMP DP  RH WIND       PRES   REMARKS
PUEBLO         FAIR      69  28  21 E10       29.98F
LA JUNTA       FAIR      72  28  19 SE10G20   29.98F
LAMAR          FAIR      74  29  19 VRB5      29.96F
SPRINGFIELD      N/A     70  32  24 SE9       30.00F
$$




USA.gov is the U.S. government's official web portal to all federal, state and local government web resources and services.